| time (UTC) | temp F | wind direction | speed MPH | gust MPH | rain 1hr in | rain 24hr in | rain mn in | humidity % | barometer mb |
| 20260502194515 | 58 | 42 | 3.0 | 5.0 | 0.00 | 0.00 | 0.00 | 73 | 1010.2 |
| 20260502193503 | 59 | 42 | 3.0 | 5.0 | 0.00 | 0.00 | 0.00 | 73 | 1010.2 |
| 20260502193009 | 59 | 42 | 3.0 | 5.0 | 0.00 | 0.00 | 0.00 | 73 | 1010.1 |
| 20260502192503 | 59 | 42 | 2.0 | 5.0 | 0.00 | 0.00 | 0.00 | 73 | 1010.1 |
| 20260502192229 | 59 | 42 | 2.0 | 5.0 | 0.00 | 0.00 | 0.00 | 72 | 1010.1 |
| 20260502191510 | 59 | 44 | 3.0 | 6.0 | 0.00 | 0.00 | 0.00 | 72 | 1010.1 |
| 20260502191003 | 59 | 42 | 5.0 | 6.0 | 0.00 | 0.00 | 0.00 | 72 | 1010.1 |
| 20260502190502 | 59 | 30 | 4.0 | 6.0 | 0.00 | 0.00 | 0.00 | 72 | 1010.1 |
| 20260502190012 | 59 | 32 | 4.0 | 6.0 | 0.00 | 0.00 | 0.00 | 71 | 1010.2 |
| 20260502185721 | 60 | 28 | 3.0 | 6.0 | 0.00 | 0.00 | 0.00 | 71 | 1010.2 |
| 20260502185002 | 60 | 25 | 3.0 | 6.0 | 0.00 | 0.00 | 0.00 | 70 | 1010.2 |
| 20260502184506 | 60 | 25 | 3.0 | 6.0 | 0.00 | 0.00 | 0.00 | 70 | 1010.1 |
| 20260502184002 | 60 | 23 | 3.0 | 7.0 | 0.00 | 0.00 | 0.00 | 70 | 1010.1 |
| 20260502183502 | 60 | 21 | 4.0 | 7.0 | 0.00 | 0.00 | 0.00 | 70 | 1010.2 |
| 20260502183004 | 60 | 41 | 3.0 | 5.0 | 0.00 | 0.00 | 0.00 | 70 | 1010.3 |
| 20260502182502 | 60 | 41 | 3.0 | 5.0 | 0.00 | 0.00 | 0.00 | 69 | 1010.4 |
| 20260502182003 | 60 | 41 | 4.0 | 5.0 | 0.00 | 0.00 | 0.00 | 69 | 1010.4 |
| 20260502181502 | 60 | 41 | 3.0 | 6.0 | 0.00 | 0.00 | 0.00 | 68 | 1010.5 |
| 20260502181003 | 60 | 37 | 4.0 | 6.0 | 0.00 | 0.00 | 0.00 | 68 | 1010.5 |
| 20260502180727 | 60 | 45 | 2.0 | 4.0 | 0.00 | 0.00 | 0.00 | 68 | 1010.5 |
| 20260502170453 | 61 | 321 | 2.0 | 5.0 | 0.00 | 0.00 | 0.00 | 65 | 1010.6 |
| 20260502163449 | 62 | 35 | 2.0 | 4.0 | 0.00 | 0.00 | 0.00 | 65 | 1011.0 |
| 20260502162947 | 62 | 34 | 2.0 | 6.0 | 0.00 | 0.00 | 0.00 | 65 | 1011.0 |
| 20260502162447 | 62 | 34 | 2.0 | 6.0 | 0.00 | 0.00 | 0.00 | 64 | 1011.0 |
| 20260502161949 | 62 | 47 | 3.0 | 6.0 | 0.00 | 0.00 | 0.00 | 64 | 1011.1 |
| 20260502161448 | 62 | 351 | 1.0 | 9.0 | 0.00 | 0.00 | 0.00 | 64 | 1011.1 |
| 20260502160947 | 62 | 350 | 2.0 | 9.0 | 0.00 | 0.00 | 0.00 | 64 | 1011.2 |
| 20260502160445 | 63 | 321 | 3.0 | 7.0 | 0.00 | 0.00 | 0.00 | 64 | 1011.2 |
| 20260502151942 | 62 | 248 | 2.0 | 9.0 | 0.00 | 0.00 | 0.00 | 65 | 1011.7 |
| 20260502151442 | 62 | 251 | 6.0 | 9.0 | 0.00 | 0.00 | 0.00 | 64 | 1011.9 |
| 20260502150939 | 62 | 296 | 6.0 | 9.0 | 0.00 | 0.00 | 0.00 | 63 | 1012.0 |
| 20260502150437 | 63 | 259 | 7.0 | 9.0 | 0.00 | 0.00 | 0.00 | 66 | 1012.0 |
| 20260502130432 | 61 | 292 | 7.0 | 11.0 | 0.00 | 0.00 | 0.00 | 70 | 1012.9 |
| 20260502123431 | 60 | 262 | 5.0 | 13.0 | 0.00 | 0.00 | 0.00 | 73 | 1013.3 |
| 20260502122932 | 61 | 293 | 9.0 | 13.0 | 0.00 | 0.00 | 0.00 | 69 | 1013.4 |
| 20260502122432 | 62 | 241 | 8.0 | 12.0 | 0.00 | 0.00 | 0.00 | 70 | 1013.5 |
| 20260502121932 | 60 | 243 | 8.0 | 16.0 | 0.00 | 0.00 | 0.00 | 73 | 1013.6 |
| 20260502121432 | 60 | 252 | 7.0 | 16.0 | 0.00 | 0.00 | 0.00 | 73 | 1013.5 |
| 20260502121156 | 60 | 276 | 7.0 | 14.0 | 0.00 | 0.00 | 0.00 | 72 | 1013.5 |
| 20260502120431 | 62 | 295 | 10.0 | 13.0 | 0.00 | 0.00 | 0.00 | 71 | 1013.6 |
| 20260502115931 | 62 | 290 | 6.0 | 13.0 | 0.00 | 0.00 | 0.00 | 74 | 1013.7 |
| 20260502115431 | 61 | 241 | 6.0 | 15.0 | 0.00 | 0.00 | 0.00 | 72 | 1013.6 |
| 20260502115153 | 60 | 255 | 9.0 | 15.0 | 0.00 | 0.00 | 0.00 | 72 | 1013.6 |
| 20260502114431 | 60 | 220 | 7.0 | 16.0 | 0.00 | 0.00 | 0.00 | 72 | 1013.5 |
| 20260502113931 | 61 | 247 | 10.0 | 16.0 | 0.00 | 0.00 | 0.00 | 73 | 1013.5 |
| 20260502113430 | 61 | 258 | 8.0 | 16.0 | 0.00 | 0.00 | 0.00 | 70 | 1013.5 |
| 20260502112930 | 61 | 244 | 9.0 | 14.0 | 0.00 | 0.00 | 0.00 | 72 | 1013.4 |
| 20260502112430 | 61 | 252 | 8.0 | 16.0 | 0.00 | 0.00 | 0.00 | 72 | 1013.5 |
| 20260502111928 | 60 | 268 | 10.0 | 16.0 | 0.00 | 0.00 | 0.00 | 72 | 1013.5 |
| 20260502111428 | 61 | 202 | 10.0 | 15.0 | 0.00 | 0.00 | 0.00 | 72 | 1013.3 |
| 20260502111151 | 61 | 250 | 8.0 | 15.0 | 0.00 | 0.00 | 0.00 | 72 | 1013.3 |
| 20260502110427 | 60 | 298 | 6.0 | 15.0 | 0.00 | 0.00 | 0.00 | 72 | 1013.3 |
| 20260502105925 | 60 | 258 | 7.0 | 13.0 | 0.00 | 0.00 | 0.00 | 71 | 1013.4 |
| 20260502105426 | 61 | 298 | 5.0 | 13.0 | 0.00 | 0.00 | 0.00 | 72 | 1013.6 |
| 20260502104925 | 60 | 245 | 8.0 | 13.0 | 0.00 | 0.00 | 0.00 | 72 | 1013.7 |
| 20260502104643 | 60 | 286 | 5.0 | 12.0 | 0.00 | 0.00 | 0.00 | 74 | 1013.6 |
| 20260502103924 | 60 | 313 | 6.0 | 13.0 | 0.00 | 0.00 | 0.00 | 72 | 1013.6 |
| 20260502103425 | 60 | 243 | 7.0 | 13.0 | 0.00 | 0.00 | 0.00 | 73 | 1013.7 |
| 20260502103141 | 60 | 278 | 7.0 | 15.0 | 0.00 | 0.00 | 0.00 | 72 | 1013.9 |
| 20260502102423 | 60 | 233 | 7.0 | 15.0 | 0.00 | 0.00 | 0.00 | 73 | 1013.8 |
| 20260502101923 | 60 | 281 | 5.0 | 14.0 | 0.00 | 0.00 | 0.00 | 73 | 1013.9 |
| 20260502101419 | 59 | 317 | 8.0 | 14.0 | 0.00 | 0.00 | 0.00 | 72 | 1013.8 |
| 20260502100919 | 60 | 237 | 6.0 | 15.0 | 0.00 | 0.00 | 0.00 | 73 | 1013.8 |
| 20260502100417 | 60 | 275 | 7.0 | 16.0 | 0.00 | 0.00 | 0.00 | 73 | 1013.7 |
| 20260502100138 | 59 | 250 | 11.0 | 16.0 | 0.00 | 0.00 | 0.00 | 74 | 1013.9 |
| 20260502091415 | 58 | 295 | 7.0 | 13.0 | 0.00 | 0.00 | 0.00 | 75 | 1014.0 |
| 20260502090915 | 58 | 286 | 7.0 | 17.0 | 0.00 | 0.00 | 0.00 | 75 | 1014.0 |
| 20260502090411 | 58 | 319 | 7.0 | 17.0 | 0.00 | 0.00 | 0.00 | 76 | 1014.0 |
| 20260502071403 | 51 | 279 | 6.0 | 13.0 | 0.00 | 0.00 | 0.00 | 87 | 1014.1 |
| 20260502070904 | 51 | 257 | 8.0 | 13.0 | 0.00 | 0.00 | 0.00 | 87 | 1014.1 |
| 20260502070403 | 51 | 271 | 4.0 | 15.0 | 0.00 | 0.00 | 0.00 | 87 | 1014.1 |
| 20260502065903 | 51 | 243 | 7.0 | 15.0 | 0.00 | 0.00 | 0.00 | 87 | 1014.0 |
| 20260502065631 | 51 | 257 | 5.0 | 12.0 | 0.00 | 0.00 | 0.00 | 87 | 1014.0 |
| 20260502064902 | 51 | 261 | 6.0 | 12.0 | 0.00 | 0.00 | 0.00 | 87 | 1014.0 |
| 20260502064404 | 52 | 258 | 7.0 | 12.0 | 0.00 | 0.00 | 0.00 | 87 | 1014.0 |
| 20260502063902 | 51 | 262 | 3.0 | 10.0 | 0.00 | 0.00 | 0.00 | 87 | 1013.9 |
| 20260502062902 | 51 | 262 | 6.0 | 10.0 | 0.00 | 0.00 | 0.00 | 87 | 1014.0 |
| 20260502062630 | 51 | 251 | 3.0 | 7.0 | 0.00 | 0.00 | 0.00 | 87 | 1013.9 |
| 20260502061902 | 51 | 292 | 2.0 | 11.0 | 0.00 | 0.00 | 0.00 | 87 | 1014.0 |
| 20260502061403 | 51 | 288 | 5.0 | 12.0 | 0.00 | 0.00 | 0.00 | 87 | 1014.0 |
| 20260502061128 | 51 | 290 | 8.0 | 12.0 | 0.00 | 0.00 | 0.00 | 87 | 1013.9 |
| 20260502060403 | 51 | 250 | 5.0 | 11.0 | 0.00 | 0.00 | 0.00 | 87 | 1013.9 |
| 20260502055903 | 51 | 298 | 7.0 | 11.0 | 0.00 | 0.00 | 0.00 | 86 | 1013.9 |
| 20260502055402 | 51 | 237 | 7.0 | 15.0 | 0.00 | 0.00 | 0.00 | 86 | 1013.8 |
| 20260502054902 | 51 | 286 | 5.0 | 15.0 | 0.00 | 0.00 | 0.00 | 86 | 1013.9 |
| 20260502054403 | 51 | 244 | 7.0 | 12.0 | 0.00 | 0.00 | 0.00 | 86 | 1013.9 |
| 20260502053902 | 51 | 272 | 6.0 | 10.0 | 0.00 | 0.00 | 0.00 | 86 | 1013.9 |
| 20260502052902 | 51 | 292 | 7.0 | 12.0 | 0.00 | 0.00 | 0.00 | 86 | 1013.9 |
| 20260502052402 | 51 | 305 | 6.0 | 12.0 | 0.00 | 0.00 | 0.00 | 86 | 1014.0 |
| 20260502051903 | 51 | 282 | 5.0 | 12.0 | 0.00 | 0.00 | 0.00 | 86 | 1013.9 |
| 20260502051402 | 51 | 276 | 5.0 | 10.0 | 0.00 | 0.00 | 0.00 | 86 | 1014.0 |
| 20260502050902 | 51 | 286 | 4.0 | 11.0 | 0.00 | 0.00 | 0.00 | 86 | 1014.0 |
| 20260502050402 | 51 | 247 | 6.0 | 11.0 | 0.00 | 0.00 | 0.00 | 86 | 1014.1 |
| 20260502045903 | 51 | 275 | 4.0 | 10.0 | 0.00 | 0.00 | 0.00 | 86 | 1013.9 |
| 20260502045402 | 51 | 293 | 6.0 | 11.0 | 0.00 | 0.00 | 0.00 | 86 | 1014.0 |
| 20260502044902 | 51 | 251 | 7.0 | 12.0 | 0.00 | 0.00 | 0.00 | 86 | 1014.0 |
| 20260502044401 | 51 | 265 | 7.0 | 13.0 | 0.00 | 0.00 | 0.00 | 86 | 1014.0 |
| 20260502043902 | 51 | 197 | 8.0 | 13.0 | 0.00 | 0.00 | 0.00 | 86 | 1014.0 |
| 20260502043619 | 51 | 251 | 7.0 | 12.0 | 0.00 | 0.00 | 0.00 | 86 | 1014.0 |
| 20260502042902 | 51 | 292 | 5.0 | 10.0 | 0.00 | 0.00 | 0.00 | 86 | 1014.1 |
| 20260502042403 | 51 | 285 | 5.0 | 11.0 | 0.00 | 0.00 | 0.00 | 86 | 1014.0 |
| 20260502041903 | 51 | 278 | 5.0 | 11.0 | 0.00 | 0.00 | 0.00 | 87 | 1014.1 |
| 20260502041402 | 51 | 302 | 5.0 | 10.0 | 0.00 | 0.00 | 0.00 | 87 | 1014.1 |
| 20260502040902 | 51 | 276 | 5.0 | 10.0 | 0.00 | 0.00 | 0.00 | 87 | 1014.2 |
| 20260502040402 | 51 | 300 | 4.0 | 12.0 | 0.00 | 0.00 | 0.00 | 87 | 1014.3 |
| 20260502040125 | 51 | 296 | 6.0 | 12.0 | 0.00 | 0.00 | 0.00 | 87 | 1014.3 |
| 20260502035402 | 51 | 286 | 4.0 | 9.0 | 0.00 | 0.00 | 0.00 | 88 | 1014.4 |
| 20260502034902 | 51 | 285 | 4.0 | 6.0 | 0.00 | 0.00 | 0.00 | 88 | 1014.4 |
| 20260502034402 | 51 | 275 | 3.0 | 9.0 | 0.00 | 0.00 | 0.00 | 88 | 1014.3 |
| 20260502033903 | 51 | 275 | 5.0 | 11.0 | 0.00 | 0.00 | 0.00 | 87 | 1014.4 |
| 20260502033630 | 51 | 281 | 6.0 | 11.0 | 0.00 | 0.00 | 0.00 | 87 | 1014.4 |
| 20260502032902 | 51 | 247 | 5.0 | 9.0 | 0.00 | 0.00 | 0.00 | 87 | 1014.3 |
| 20260502032402 | 51 | 285 | 4.0 | 14.0 | 0.00 | 0.00 | 0.00 | 87 | 1014.3 |
| 20260502031402 | 51 | 275 | 4.0 | 9.0 | 0.00 | 0.00 | 0.00 | 88 | 1014.3 |
| 20260502030903 | 50 | 282 | 5.0 | 9.0 | 0.00 | 0.00 | 0.00 | 88 | 1014.2 |
| 20260502030621 | 50 | 307 | 4.0 | 9.0 | 0.00 | 0.00 | 0.00 | 88 | 1014.2 |
| 20260502025902 | 50 | 288 | 5.0 | 7.0 | 0.00 | 0.00 | 0.00 | 88 | 1014.3 |
| 20260502025403 | 50 | 276 | 5.0 | 10.0 | 0.00 | 0.00 | 0.00 | 88 | 1014.4 |
| 20260502024901 | 50 | 289 | 4.0 | 11.0 | 0.00 | 0.00 | 0.00 | 88 | 1014.3 |
| 20260502024402 | 50 | 255 | 6.0 | 12.0 | 0.00 | 0.00 | 0.00 | 88 | 1014.3 |
| 20260502024128 | 50 | 265 | 6.0 | 12.0 | 0.00 | 0.00 | 0.00 | 89 | 1014.3 |
| 20260502023402 | 50 | 279 | 6.0 | 11.0 | 0.00 | 0.00 | 0.00 | 89 | 1014.3 |
| 20260502022902 | 50 | 298 | 4.0 | 10.0 | 0.00 | 0.00 | 0.00 | 89 | 1014.4 |
| 20260502022402 | 50 | 244 | 6.0 | 11.0 | 0.00 | 0.00 | 0.00 | 89 | 1014.3 |
| 20260502021902 | 49 | 295 | 5.0 | 11.0 | 0.00 | 0.00 | 0.00 | 89 | 1014.4 |
| 20260502021625 | 49 | 278 | 4.0 | 9.0 | 0.00 | 0.00 | 0.00 | 89 | 1014.4 |
| 20260502020902 | 50 | 281 | 4.0 | 7.0 | 0.00 | 0.00 | 0.00 | 89 | 1014.4 |
| 20260502020402 | 50 | 279 | 4.0 | 9.0 | 0.00 | 0.00 | 0.00 | 89 | 1014.4 |
| 20260502015901 | 50 | 276 | 4.0 | 10.0 | 0.00 | 0.00 | 0.00 | 89 | 1014.5 |
| 20260502015402 | 50 | 300 | 7.0 | 10.0 | 0.00 | 0.00 | 0.00 | 89 | 1014.6 |
| 20260502014902 | 50 | 250 | 4.0 | 10.0 | 0.00 | 0.00 | 0.00 | 88 | 1014.5 |
| 20260502014402 | 50 | 292 | 5.0 | 10.0 | 0.00 | 0.00 | 0.00 | 88 | 1014.6 |
| 20260502013902 | 50 | 283 | 5.0 | 9.0 | 0.00 | 0.00 | 0.00 | 88 | 1014.8 |
| 20260502013404 | 50 | 286 | 5.0 | 9.0 | 0.00 | 0.00 | 0.00 | 88 | 1014.7 |
| 20260502012902 | 50 | 278 | 5.0 | 9.0 | 0.00 | 0.00 | 0.00 | 88 | 1014.8 |
| 20260502012402 | 50 | 272 | 5.0 | 7.0 | 0.00 | 0.00 | 0.00 | 88 | 1014.9 |
| 20260502011901 | 51 | 281 | 5.0 | 7.0 | 0.00 | 0.00 | 0.00 | 87 | 1015.0 |
| 20260502011401 | 51 | 276 | 3.0 | 6.0 | 0.00 | 0.00 | 0.00 | 87 | 1015.0 |
| 20260502010902 | 51 | 278 | 3.0 | 9.0 | 0.00 | 0.00 | 0.00 | 87 | 1015.0 |
| 20260502005902 | 51 | 274 | 4.0 | 9.0 | 0.00 | 0.00 | 0.00 | 87 | 1015.1 |
| 20260502005402 | 51 | 278 | 4.0 | 9.0 | 0.00 | 0.00 | 0.00 | 87 | 1015.1 |
| 20260502005129 | 51 | 285 | 6.0 | 7.0 | 0.00 | 0.00 | 0.00 | 87 | 1015.1 |
| 20260502004623 | 51 | 281 | 4.0 | 7.0 | 0.00 | 0.00 | 0.00 | 87 | 1015.2 |
| 20260502003902 | 52 | 262 | 4.0 | 7.0 | 0.00 | 0.00 | 0.00 | 87 | 1015.3 |
| 20260502003402 | 52 | 261 | 4.0 | 7.0 | 0.00 | 0.00 | 0.00 | 87 | 1015.4 |
| 20260502002902 | 52 | 282 | 4.0 | 7.0 | 0.00 | 0.00 | 0.00 | 86 | 1015.3 |
| 20260502002625 | 52 | 288 | 4.0 | 7.0 | 0.00 | 0.00 | 0.00 | 86 | 1015.3 |
| 20260502001902 | 53 | 261 | 3.0 | 6.0 | 0.00 | 0.00 | 0.00 | 86 | 1015.3 |
| 20260502001402 | 53 | 261 | 4.0 | 7.0 | 0.00 | 0.00 | 0.00 | 86 | 1015.4 |
| 20260502001121 | 53 | 261 | 4.0 | 9.0 | 0.00 | 0.00 | 0.00 | 85 | 1015.3 |
| 20260502000402 | 53 | 266 | 5.0 | 9.0 | 0.00 | 0.00 | 0.00 | 85 | 1015.3 |
| 20260501235902 | 53 | 285 | 6.0 | 9.0 | 0.00 | 0.00 | 0.00 | 85 | 1015.2 |
| 20260501235402 | 54 | 292 | 6.0 | 11.0 | 0.00 | 0.00 | 0.00 | 85 | 1015.3 |
| 20260501234901 | 54 | 282 | 7.0 | 11.0 | 0.00 | 0.00 | 0.00 | 84 | 1015.3 |
| 20260501234402 | 54 | 261 | 5.0 | 10.0 | 0.00 | 0.00 | 0.00 | 84 | 1015.3 |
| 20260501233902 | 54 | 312 | 4.0 | 11.0 | 0.00 | 0.00 | 0.00 | 84 | 1015.3 |
| 20260501233405 | 54 | 272 | 5.0 | 11.0 | 0.00 | 0.00 | 0.00 | 84 | 1015.4 |
| 20260501232905 | 54 | 293 | 5.0 | 11.0 | 0.00 | 0.00 | 0.00 | 84 | 1015.4 |
| 20260501232405 | 54 | 275 | 6.0 | 11.0 | 0.00 | 0.00 | 0.00 | 84 | 1015.3 |
| 20260501231901 | 54 | 295 | 5.0 | 7.0 | 0.00 | 0.00 | 0.00 | 84 | 1015.3 |
| 20260501231627 | 54 | 292 | 5.0 | 7.0 | 0.00 | 0.00 | 0.00 | 84 | 1015.3 |
| 20260501230902 | 55 | 298 | 4.0 | 9.0 | 0.00 | 0.00 | 0.00 | 84 | 1015.2 |
| 20260501230403 | 55 | 320 | 4.0 | 9.0 | 0.00 | 0.00 | 0.00 | 84 | 1015.2 |
| 20260501225627 | 55 | 317 | 4.0 | 6.0 | 0.00 | 0.00 | 0.00 | 84 | 1015.2 |
| 20260501224901 | 55 | 309 | 3.0 | 7.0 | 0.00 | 0.00 | 0.00 | 84 | 1015.3 |
| 20260501224402 | 55 | 310 | 4.0 | 9.0 | 0.00 | 0.00 | 0.00 | 84 | 1015.2 |
| 20260501223902 | 55 | 296 | 4.0 | 11.0 | 0.00 | 0.00 | 0.00 | 84 | 1015.3 |
| 20260501223625 | 55 | 271 | 6.0 | 11.0 | 0.00 | 0.00 | 0.00 | 84 | 1015.4 |
| 20260501222903 | 55 | 258 | 4.0 | 7.0 | 0.00 | 0.00 | 0.00 | 85 | 1015.3 |
| 20260501222402 | 55 | 344 | 2.0 | 5.0 | 0.00 | 0.00 | 0.00 | 85 | 1015.3 |
| 20260501221902 | 55 | 344 | 2.0 | 4.0 | 0.00 | 0.00 | 0.00 | 85 | 1015.3 |
| 20260501221403 | 55 | 344 | 2.0 | 5.0 | 0.00 | 0.00 | 0.00 | 86 | 1015.3 |
| 20260501220902 | 55 | 344 | 2.0 | 7.0 | 0.00 | 0.00 | 0.00 | 86 | 1015.3 |
| 20260501220623 | 55 | 345 | 4.0 | 10.0 | 0.00 | 0.00 | 0.00 | 86 | 1015.2 |
| 20260501215901 | 55 | 274 | 3.0 | 10.0 | 0.00 | 0.00 | 0.00 | 86 | 1015.3 |
| 20260501215621 | 55 | 351 | 4.0 | 11.0 | 0.00 | 0.00 | 0.00 | 86 | 1015.3 |
| 20260501214903 | 55 | 316 | 3.0 | 13.0 | 0.00 | 0.00 | 0.00 | 85 | 1015.3 |
| 20260501214402 | 55 | 290 | 7.0 | 13.0 | 0.00 | 0.00 | 0.00 | 85 | 1015.3 |
| 20260501213902 | 56 | 281 | 6.0 | 10.0 | 0.00 | 0.00 | 0.00 | 84 | 1015.2 |
| 20260501213401 | 56 | 299 | 4.0 | 12.0 | 0.00 | 0.00 | 0.00 | 84 | 1015.1 |
| 20260501212902 | 56 | 274 | 7.0 | 12.0 | 0.00 | 0.00 | 0.00 | 84 | 1015.1 |
| 20260501212402 | 56 | 320 | 5.0 | 7.0 | 0.00 | 0.00 | 0.00 | 83 | 1015.2 |
| 20260501211903 | 56 | 338 | 2.0 | 7.0 | 0.00 | 0.00 | 0.00 | 83 | 1015.3 |
| 20260501211619 | 56 | 345 | 4.0 | 7.0 | 0.00 | 0.00 | 0.00 | 83 | 1015.2 |
| 20260501210902 | 56 | 309 | 3.0 | 7.0 | 0.00 | 0.00 | 0.00 | 82 | 1015.2 |
| 20260501210402 | 56 | 307 | 3.0 | 7.0 | 0.00 | 0.00 | 0.00 | 82 | 1015.2 |
| 20260501205902 | 56 | 305 | 3.0 | 6.0 | 0.00 | 0.00 | 0.00 | 82 | 1015.2 |
| 20260501205403 | 57 | 305 | 4.0 | 6.0 | 0.00 | 0.00 | 0.00 | 82 | 1015.3 |
| 20260501204902 | 57 | 289 | 1.0 | 4.0 | 0.00 | 0.00 | 0.00 | 81 | 1015.3 |
| 20260501204402 | 57 | 289 | 1.0 | 6.0 | 0.00 | 0.00 | 0.00 | 81 | 1015.2 |
| 20260501203902 | 57 | 288 | 1.0 | 9.0 | 0.00 | 0.00 | 0.00 | 81 | 1015.2 |
| 20260501203402 | 57 | 289 | 4.0 | 11.0 | 0.00 | 0.00 | 0.00 | 80 | 1015.0 |
| 20260501202901 | 57 | 295 | 4.0 | 11.0 | 0.00 | 0.00 | 0.00 | 80 | 1015.1 |
| 20260501202402 | 57 | 259 | 5.0 | 12.0 | 0.00 | 0.00 | 0.00 | 79 | 1015.0 |
| 20260501201902 | 57 | 282 | 7.0 | 12.0 | 0.00 | 0.00 | 0.00 | 79 | 1015.1 |
| 20260501201402 | 57 | 274 | 7.0 | 12.0 | 0.00 | 0.00 | 0.00 | 78 | 1015.0 |
| 20260501200902 | 58 | 279 | 6.0 | 12.0 | 0.00 | 0.00 | 0.00 | 78 | 1015.1 |
| 20260501200402 | 58 | 265 | 6.0 | 14.0 | 0.00 | 0.00 | 0.00 | 78 | 1015.1 |
| 20260501195902 | 58 | 266 | 7.0 | 14.0 | 0.00 | 0.00 | 0.00 | 78 | 1015.1 |
| 20260501195402 | 58 | 271 | 9.0 | 16.0 | 0.00 | 0.00 | 0.00 | 77 | 1015.0 |